Location: Newark
(49.4794°N, 21.2167°E)
Time: 00:54:16
(UTC+00:00)

OTV 5 (USA 277) - Visible Passes

Search period start: 23 October 2019 00:00
Search period end: 02 November 2019 00:00
Orbit: 310 x 324 km, 54.5° (Epoch: 17 October)

Date Brightness Start Highest point End Pass type
(mag) Time Alt. Az. Time Alt. Az. Time Alt. Az.
28 Oct ? 17:07:36 10° S 17:07:46 11° S 17:07:46 11° S visible
29 Oct ? 17:21:20 10° SW 17:22:16 18° SSW 17:22:16 18° SSW visible
30 Oct ? 16:03:20 10° SSE 16:04:31 12° SE 16:05:42 10° ESE visible
30 Oct ? 17:35:40 10° WSW 17:36:39 20° WSW 17:36:39 20° WSW visible
31 Oct ? 16:16:28 10° SSW 16:18:49 26° SE 16:20:03 18° E visible
31 Oct ? 17:50:19 10° W 17:50:56 15° W 17:50:56 15° W visible
01 Nov ? 16:30:33 10° SW 16:33:15 57° SSE 16:34:15 32° E visible
